Time,TemperatureF,DewpointF,PressureIn,WindDirection,WindDirectionDegrees,WindSpeedMPH,WindSpeedGustMPH,Humidity,HourlyPrecipIn,Conditions,Clouds,dailyrainin,SoftwareType,DateUTC
2013-07-03 00:00:00,75.0,74.2,30.14,ENE,70,0.0,3.4,97,0.00,,,0.00,WUHU216PEETBRO,2013-07-03 04:00:00,
2013-07-03 00:01:00,75.0,74.2,30.14,ENE,70,0.0,3.4,97,0.00,,,0.00,WUHU216PEETBRO,2013-07-03 04:01:00,
2013-07-03 00:03:00,75.0,74.1,30.14,East,94,0.0,3.2,97,0.00,,,0.00,WUHU216PEETBRO,2013-07-03 04:03:00,
2013-07-03 00:04:00,75.0,74.1,30.14,East,94,0.0,3.2,97,0.00,,,0.00,WUHU216PEETBRO,2013-07-03 04:04:00,
2013-07-03 00:09:00,74.9,74.0,30.14,ESE,111,0.0,3.2,97,0.00,,,0.00,WUHU216PEETBRO,2013-07-03 04:09:00,
2013-07-03 00:14:00,75.0,74.1,30.14,NE,56,0.0,3.2,97,0.00,,,0.00,WUHU216PEETBRO,2013-07-03 04:14:00,
2013-07-03 00:19:00,74.9,74.0,30.14,NE,56,0.0,3.2,97,0.00,,,0.00,WUHU216PEETBRO,2013-07-03 04:19:00,
2013-07-03 00:24:00,74.9,74.0,30.14,NE,56,0.0,2.5,97,0.00,,,0.00,WUHU216PEETBRO,2013-07-03 04:24:00,
2013-07-03 00:29:00,74.8,73.9,30.13,East,101,0.0,4.2,97,0.00,,,0.00,WUHU216PEETBRO,2013-07-03 04:29:00,
2013-07-03 00:31:00,74.9,74.0,30.13,East,101,0.0,4.2,97,0.00,,,0.00,WUHU216PEETBRO,2013-07-03 04:31:00,
2013-07-03 00:32:00,74.8,73.9,30.13,East,100,0.0,4.2,97,0.00,,,0.00,WUHU216PEETBRO,2013-07-03 04:32:00,
2013-07-03 00:37:00,74.8,73.9,30.13,ESE,111,0.0,4.2,97,0.00,,,0.00,WUHU216PEETBRO,2013-07-03 04:37:00,
2013-07-03 00:42:00,74.7,73.8,30.13,East,90,0.0,3.4,97,0.00,,,0.00,WUHU216PEETBRO,2013-07-03 04:42:00,
2013-07-03 00:45:00,74.7,73.8,30.13,East,90,0.0,3.4,97,0.00,,,0.00,WUHU216PEETBRO,2013-07-03 04:45:00,
2013-07-03 00:46:00,74.8,73.9,30.13,East,90,0.0,3.4,97,0.00,,,0.00,WUHU216PEETBRO,2013-07-03 04:46:00,
2013-07-03 00:51:00,74.7,73.8,30.13,ESE,111,0.0,0.0,97,0.00,,,0.00,WUHU216PEETBRO,2013-07-03 04:51:00,
2013-07-03 00:53:00,74.7,73.8,30.13,ESE,111,0.0,0.0,97,0.00,,,0.00,WUHU216PEETBRO,2013-07-03 04:53:00,
2013-07-03 00:58:00,74.8,73.9,30.13,NE,49,0.0,4.3,97,0.00,,,0.00,WUHU216PEETBRO,2013-07-03 04:58:00,
2013-07-03 01:03:00,74.7,73.8,30.13,East,101,0.0,4.3,97,0.00,,,0.00,WUHU216PEETBRO,2013-07-03 05:03:00,
2013-07-03 01:07:00,74.7,73.8,30.13,NE,45,0.0,3.5,97,0.00,,,0.00,WUHU216PEETBRO,2013-07-03 05:07:00,
2013-07-03 01:08:00,74.7,73.8,30.13,NE,45,0.0,3.5,97,0.00,,,0.00,WUHU216PEETBRO,2013-07-03 05:08:00,
2013-07-03 01:13:00,74.7,73.8,30.13,NE,45,0.0,2.1,97,0.00,,,0.00,WUHU216PEETBRO,2013-07-03 05:13:00,
2013-07-03 01:18:00,74.6,73.7,30.13,NE,45,0.0,0.0,97,0.00,,,0.00,WUHU216PEETBRO,2013-07-03 05:18:00,
2013-07-03 01:19:00,74.6,73.7,30.14,NE,45,0.0,0.0,97,0.00,,,0.00,WUHU216PEETBRO,2013-07-03 05:19:00,
2013-07-03 01:24:00,74.6,73.7,30.13,NE,45,0.0,0.0,97,0.00,,,0.00,WUHU216PEETBRO,2013-07-03 05:24:00,
2013-07-03 01:29:00,74.5,73.6,30.13,NE,45,0.0,0.0,97,0.00,,,0.00,WUHU216PEETBRO,2013-07-03 05:29:00,
2013-07-03 01:35:00,74.6,73.8,30.13,East,79,0.0,4.7,97,0.00,,,0.00,WUHU216PEETBRO,2013-07-03 05:35:00,
2013-07-03 01:40:00,74.7,73.9,30.13,East,79,0.0,4.7,97,0.00,,,0.00,WUHU216PEETBRO,2013-07-03 05:40:00,
2013-07-03 01:45:00,74.7,73.9,30.13,East,79,0.0,0.0,97,0.00,,,0.00,WUHU216PEETBRO,2013-07-03 05:45:00,
2013-07-03 01:50:00,74.7,73.9,30.13,East,79,0.0,0.0,97,0.00,,,0.00,WUHU216PEETBRO,2013-07-03 05:50:00,
2013-07-03 01:54:00,74.7,73.8,30.13,East,79,0.0,0.0,97,0.00,,,0.00,WUHU216PEETBRO,2013-07-03 05:54:00,
2013-07-03 01:58:00,74.6,73.8,30.13,East,79,0.0,0.0,97,0.00,,,0.00,WUHU216PEETBRO,2013-07-03 05:58:00,
2013-07-03 02:02:00,74.7,73.9,30.13,East,79,0.0,0.0,97,0.00,,,0.00,WUHU216PEETBRO,2013-07-03 06:02:00,
2013-07-03 02:07:00,74.8,74.0,30.13,East,79,0.0,0.0,97,0.00,,,0.00,WUHU216PEETBRO,2013-07-03 06:07:00,
2013-07-03 02:12:00,74.7,73.9,30.13,East,79,0.0,0.0,97,0.00,,,0.00,WUHU216PEETBRO,2013-07-03 06:12:00,
2013-07-03 02:13:00,74.7,73.9,30.13,East,79,0.0,0.0,97,0.00,,,0.00,WUHU216PEETBRO,2013-07-03 06:13:00,
2013-07-03 02:17:00,74.7,73.9,30.13,East,79,0.0,0.0,97,0.00,,,0.00,WUHU216PEETBRO,2013-07-03 06:17:00,
2013-07-03 02:18:00,74.8,74.0,30.13,East,79,0.0,0.0,97,0.00,,,0.00,WUHU216PEETBRO,2013-07-03 06:18:00,
2013-07-03 02:22:00,74.6,73.7,30.13,East,79,0.0,0.0,97,0.00,,,0.00,WUHU216PEETBRO,2013-07-03 06:22:00,
2013-07-03 02:24:00,74.6,73.8,30.12,East,79,0.0,0.0,97,0.00,,,0.00,WUHU216PEETBRO,2013-07-03 06:24:00,
2013-07-03 02:27:00,74.6,73.8,30.12,East,79,0.0,0.0,97,0.00,,,0.00,WUHU216PEETBRO,2013-07-03 06:27:00,
2013-07-03 02:32:00,74.6,73.8,30.12,East,79,0.0,0.0,97,0.00,,,0.00,WUHU216PEETBRO,2013-07-03 06:32:00,
2013-07-03 02:37:00,74.6,73.8,30.12,East,79,0.0,0.0,97,0.00,,,0.00,WUHU216PEETBRO,2013-07-03 06:37:00,
2013-07-03 02:42:00,74.6,73.8,30.12,East,79,0.0,0.0,97,0.00,,,0.00,WUHU216PEETBRO,2013-07-03 06:42:00,
2013-07-03 02:43:00,74.6,73.8,30.12,East,79,0.0,0.0,97,0.00,,,0.00,WUHU216PEETBRO,2013-07-03 06:43:00,
2013-07-03 02:48:00,74.6,73.8,30.11,East,79,0.0,0.0,97,0.00,,,0.00,WUHU216PEETBRO,2013-07-03 06:48:00,
2013-07-03 02:53:00,74.9,74.1,30.11,NE,45,0.0,2.9,97,0.00,,,0.00,WUHU216PEETBRO,2013-07-03 06:53:00,
2013-07-03 02:55:00,74.8,74.0,30.11,NE,45,0.0,2.9,97,0.00,,,0.00,WUHU216PEETBRO,2013-07-03 06:55:00,
2013-07-03 03:00:00,74.8,74.0,30.11,NE,45,0.0,2.9,97,0.00,,,0.00,WUHU216PEETBRO,2013-07-03 07:00:00,
2013-07-03 03:05:00,74.8,74.0,30.11,NE,45,0.0,0.0,97,0.00,,,0.00,WUHU216PEETBRO,2013-07-03 07:05:00,
2013-07-03 03:11:00,75.1,74.3,30.11,NE,45,0.0,0.0,98,0.00,,,0.00,WUHU216PEETBRO,2013-07-03 07:11:00,
2013-07-03 03:16:00,75.0,74.2,30.11,NE,45,0.0,0.0,98,0.00,,,0.00,WUHU216PEETBRO,2013-07-03 07:16:00,
2013-07-03 03:17:00,75.0,74.2,30.11,NE,45,0.0,0.0,97,0.00,,,0.00,WUHU216PEETBRO,2013-07-03 07:17:00,
2013-07-03 03:22:00,75.0,74.2,30.11,NE,45,0.0,0.0,98,0.00,,,0.00,WUHU216PEETBRO,2013-07-03 07:22:00,
2013-07-03 03:27:00,75.0,74.2,30.11,NE,45,0.0,0.0,98,0.00,,,0.00,WUHU216PEETBRO,2013-07-03 07:27:00,
2013-07-03 03:33:00,75.0,74.2,30.11,NE,45,0.0,0.0,98,0.00,,,0.00,WUHU216PEETBRO,2013-07-03 07:33:00,
2013-07-03 03:38:00,75.1,74.4,30.11,NE,45,0.0,0.0,98,0.00,,,0.00,WUHU216PEETBRO,2013-07-03 07:38:00,
2013-07-03 03:43:00,75.1,74.4,30.11,NE,45,0.0,0.0,98,0.00,,,0.00,WUHU216PEETBRO,2013-07-03 07:43:00,
2013-07-03 03:48:00,75.1,74.3,30.11,SE,131,0.0,0.0,98,0.00,,,0.00,WUHU216PEETBRO,2013-07-03 07:48:00,
2013-07-03 03:51:00,75.2,74.5,30.11,SE,131,0.0,0.0,98,0.00,,,0.00,WUHU216PEETBRO,2013-07-03 07:51:00,
2013-07-03 03:56:00,75.2,74.5,30.11,SE,131,0.0,0.0,98,0.00,,,0.00,WUHU216PEETBRO,2013-07-03 07:56:00,
2013-07-03 04:02:00,75.2,74.5,30.11,SE,131,0.0,0.0,98,0.00,,,0.00,WUHU216PEETBRO,2013-07-03 08:02:00,
2013-07-03 04:06:00,75.2,74.5,30.11,ESE,115,0.0,3.2,98,0.00,,,0.00,WUHU216PEETBRO,2013-07-03 08:06:00,
2013-07-03 04:09:00,75.2,74.5,30.11,ESE,115,0.0,3.2,98,0.00,,,0.00,WUHU216PEETBRO,2013-07-03 08:09:00,
2013-07-03 04:14:00,75.2,74.5,30.11,ESE,115,0.0,3.2,98,0.00,,,0.00,WUHU216PEETBRO,2013-07-03 08:14:00,
2013-07-03 04:18:00,75.2,74.5,30.11,SE,127,1.9,3.0,98,0.00,,,0.00,WUHU216PEETBRO,2013-07-03 08:18:00,
2013-07-03 04:23:00,75.3,74.6,30.11,ESE,112,0.0,3.4,98,0.00,,,0.00,WUHU216PEETBRO,2013-07-03 08:23:00,
2013-07-03 04:29:00,75.3,74.6,30.11,East,90,2.9,4.6,98,0.00,,,0.00,WUHU216PEETBRO,2013-07-03 08:29:00,
2013-07-03 04:34:00,75.4,74.7,30.11,East,100,0.0,4.6,98,0.00,,,0.00,WUHU216PEETBRO,2013-07-03 08:34:00,
2013-07-03 04:39:00,75.4,74.7,30.11,SSE,162,0.0,3.4,98,0.00,,,0.00,WUHU216PEETBRO,2013-07-03 08:39:00,
2013-07-03 04:44:00,75.4,74.7,30.11,SSE,158,0.0,3.4,98,0.00,,,0.00,WUHU216PEETBRO,2013-07-03 08:44:00,
2013-07-03 04:45:00,75.4,74.7,30.11,ESE,110,0.0,3.3,98,0.00,,,0.00,WUHU216PEETBRO,2013-07-03 08:45:00,
2013-07-03 04:51:00,75.5,74.8,30.11,East,84,0.0,4.6,98,0.00,,,0.00,WUHU216PEETBRO,2013-07-03 08:51:00,
2013-07-03 04:54:00,75.6,74.9,30.11,SE,145,0.0,4.6,98,0.00,,,0.00,WUHU216PEETBRO,2013-07-03 08:54:00,
2013-07-03 04:55:00,75.4,74.7,30.11,SE,145,0.0,4.6,98,0.00,,,0.00,WUHU216PEETBRO,2013-07-03 08:55:00,
2013-07-03 05:00:00,75.6,74.9,30.11,ENE,77,0.0,4.8,98,0.00,,,0.00,WUHU216PEETBRO,2013-07-03 09:00:00,
2013-07-03 05:05:00,75.6,74.9,30.11,ESE,104,3.5,4.8,98,0.00,,,0.00,WUHU216PEETBRO,2013-07-03 09:05:00,
2013-07-03 05:10:00,75.7,75.0,30.11,NE,36,0.0,6.2,98,0.00,,,0.00,WUHU216PEETBRO,2013-07-03 09:10:00,
2013-07-03 05:16:00,75.7,75.0,30.11,SE,138,0.0,3.4,98,0.00,,,0.00,WUHU216PEETBRO,2013-07-03 09:16:00,
2013-07-03 05:21:00,75.7,75.0,30.11,East,81,0.0,5.4,98,0.00,,,0.00,WUHU216PEETBRO,2013-07-03 09:21:00,
2013-07-03 05:26:00,75.7,75.0,30.11,ENE,66,0.0,5.4,98,0.00,,,0.00,WUHU216PEETBRO,2013-07-03 09:26:00,
2013-07-03 05:31:00,75.8,75.1,30.12,SSE,165,0.0,3.4,98,0.00,,,0.00,WUHU216PEETBRO,2013-07-03 09:31:00,
2013-07-03 05:37:00,75.8,75.1,30.12,ESE,105,3.2,4.5,98,0.00,,,0.00,WUHU216PEETBRO,2013-07-03 09:37:00,
2013-07-03 05:41:00,75.8,75.1,30.12,ESE,105,0.0,4.5,98,0.00,,,0.00,WUHU216PEETBRO,2013-07-03 09:41:00,
2013-07-03 05:47:00,75.7,75.0,30.12,ESE,105,0.0,3.2,98,0.00,,,0.00,WUHU216PEETBRO,2013-07-03 09:47:00,
2013-07-03 05:49:00,75.7,75.0,30.12,East,94,0.0,3.2,98,0.00,,,0.00,WUHU216PEETBRO,2013-07-03 09:49:00,
2013-07-03 05:50:00,75.7,75.0,30.12,ESE,122,0.0,2.8,98,0.00,,,0.00,WUHU216PEETBRO,2013-07-03 09:50:00,
2013-07-03 05:55:00,75.7,75.0,30.12,ESE,122,0.0,2.8,98,0.00,,,0.00,WUHU216PEETBRO,2013-07-03 09:55:00,
2013-07-03 06:00:00,75.7,75.0,30.12,ESE,119,0.0,4.4,98,0.00,,,0.00,WUHU216PEETBRO,2013-07-03 10:00:00,
2013-07-03 06:04:00,75.7,75.0,30.12,SSE,158,0.0,5.2,98,0.00,,,0.00,WUHU216PEETBRO,2013-07-03 10:04:00,
2013-07-03 06:05:00,75.7,75.0,30.12,South,183,0.0,5.3,98,0.00,,,0.00,WUHU216PEETBRO,2013-07-03 10:05:00,
2013-07-03 06:10:00,75.7,75.0,30.12,East,101,0.0,5.3,98,0.00,,,0.00,WUHU216PEETBRO,2013-07-03 10:10:00,
2013-07-03 06:15:00,75.7,75.0,30.12,ESE,105,0.0,3.3,98,0.00,,,0.00,WUHU216PEETBRO,2013-07-03 10:15:00,
2013-07-03 06:20:00,75.6,74.9,30.12,ESE,107,0.0,3.3,98,0.00,,,0.00,WUHU216PEETBRO,2013-07-03 10:20:00,
2013-07-03 06:25:00,75.5,74.8,30.12,SE,139,0.0,3.5,98,0.00,,,0.00,WUHU216PEETBRO,2013-07-03 10:25:00,
2013-07-03 06:30:00,75.5,74.9,30.12,ESE,118,3.5,4.3,98,0.00,,,0.00,WUHU216PEETBRO,2013-07-03 10:30:00,
2013-07-03 06:33:00,75.7,75.0,30.12,East,97,3.4,4.6,98,0.00,,,0.00,WUHU216PEETBRO,2013-07-03 10:33:00,
2013-07-03 06:38:00,75.6,74.9,30.12,SE,141,0.0,4.6,98,0.00,,,0.00,WUHU216PEETBRO,2013-07-03 10:38:00,
2013-07-03 06:43:00,75.5,74.8,30.13,SE,138,0.0,4.3,98,0.00,,,0.00,WUHU216PEETBRO,2013-07-03 10:43:00,
2013-07-03 06:48:00,75.4,74.8,30.13,ESE,108,0.0,3.2,98,0.00,,,0.00,WUHU216PEETBRO,2013-07-03 10:48:00,
2013-07-03 06:49:00,75.4,74.7,30.13,ESE,117,0.0,5.2,98,0.00,,,0.00,WUHU216PEETBRO,2013-07-03 10:49:00,
2013-07-03 06:55:00,75.3,74.7,30.13,East,79,0.0,5.2,98,0.00,,,0.00,WUHU216PEETBRO,2013-07-03 10:55:00,
2013-07-03 06:57:00,75.4,74.8,30.13,SE,139,3.4,5.2,98,0.00,,,0.00,WUHU216PEETBRO,2013-07-03 10:57:00,
2013-07-03 07:02:00,75.5,74.9,30.13,East,95,0.0,4.3,98,0.00,,,0.00,WUHU216PEETBRO,2013-07-03 11:02:00,
2013-07-03 07:07:00,75.5,74.9,30.14,SW,232,4.1,5.8,98,0.00,,,0.00,WUHU216PEETBRO,2013-07-03 11:07:00,
2013-07-03 07:08:00,75.4,74.8,30.14,SW,232,0.0,5.8,98,0.00,,,0.00,WUHU216PEETBRO,2013-07-03 11:08:00,
2013-07-03 07:09:00,75.5,74.9,30.14,SW,232,0.0,5.8,98,0.00,,,0.00,WUHU216PEETBRO,2013-07-03 11:09:00,
2013-07-03 07:14:00,75.4,74.8,30.14,SE,141,3.4,5.8,98,0.00,,,0.00,WUHU216PEETBRO,2013-07-03 11:14:00,
2013-07-03 07:19:00,75.7,75.1,30.14,ENE,70,0.0,7.8,98,0.00,,,0.00,WUHU216PEETBRO,2013-07-03 11:19:00,
2013-07-03 07:23:00,75.7,75.0,30.14,SSE,158,0.0,7.8,98,0.00,,,0.00,WUHU216PEETBRO,2013-07-03 11:23:00,
2013-07-03 07:25:00,75.8,75.1,30.14,ESE,115,4.7,5.7,98,0.00,,,0.00,WUHU216PEETBRO,2013-07-03 11:25:00,
2013-07-03 07:30:00,75.8,75.1,30.14,East,81,0.0,5.2,98,0.00,,,0.00,WUHU216PEETBRO,2013-07-03 11:30:00,
2013-07-03 07:36:00,75.9,75.2,30.14,ESE,121,3.5,6.0,98,0.00,,,0.00,WUHU216PEETBRO,2013-07-03 11:36:00,
2013-07-03 07:41:00,76.1,75.4,30.14,SE,141,3.4,6.2,98,0.00,,,0.00,WUHU216PEETBRO,2013-07-03 11:41:00,
2013-07-03 07:46:00,76.3,75.6,30.14,SE,128,3.4,7.9,98,0.00,,,0.00,WUHU216PEETBRO,2013-07-03 11:46:00,
2013-07-03 07:51:00,76.7,75.9,30.14,East,81,3.2,7.9,98,0.00,,,0.00,WUHU216PEETBRO,2013-07-03 11:51:00,
2013-07-03 07:56:00,76.9,76.0,30.15,East,98,4.3,6.8,97,0.00,,,0.00,WUHU216PEETBRO,2013-07-03 11:56:00,
2013-07-03 07:59:00,77.0,76.1,30.15,ENE,73,5.6,8.1,97,0.00,,,0.00,WUHU216PEETBRO,2013-07-03 11:59:00,
2013-07-03 08:03:00,77.3,76.3,30.15,East,91,5.3,9.7,97,0.00,,,0.00,WUHU216PEETBRO,2013-07-03 12:03:00,
2013-07-03 08:08:00,77.4,76.2,30.15,SSE,160,7.0,9.7,96,0.00,,,0.00,WUHU216PEETBRO,2013-07-03 12:08:00,
2013-07-03 08:12:00,77.7,76.5,30.15,SE,124,4.3,8.6,96,0.00,,,0.00,WUHU216PEETBRO,2013-07-03 12:12:00,
2013-07-03 08:16:00,77.8,76.5,30.15,NE,53,4.2,8.6,96,0.00,,,0.00,WUHU216PEETBRO,2013-07-03 12:16:00,
2013-07-03 08:20:00,78.0,76.8,30.16,South,177,7.9,7.9,96,0.00,,,0.00,WUHU216PEETBRO,2013-07-03 12:20:00,
2013-07-03 08:25:00,78.2,76.9,30.16,SSE,159,0.0,7.9,96,0.00,,,0.00,WUHU216PEETBRO,2013-07-03 12:25:00,
2013-07-03 08:30:00,78.3,77.0,30.16,East,87,4.7,8.0,96,0.00,,,0.00,WUHU216PEETBRO,2013-07-03 12:30:00,
2013-07-03 08:35:00,78.5,77.1,30.16,SE,131,5.4,8.1,95,0.00,,,0.00,WUHU216PEETBRO,2013-07-03 12:35:00,
2013-07-03 08:40:00,78.7,77.2,30.16,ENE,64,5.1,8.1,95,0.00,,,0.00,WUHU216PEETBRO,2013-07-03 12:40:00,
2013-07-03 08:45:00,79.0,77.5,30.16,SE,143,4.5,7.1,95,0.00,,,0.00,WUHU216PEETBRO,2013-07-03 12:45:00,
2013-07-03 08:46:00,79.0,77.4,30.16,South,169,0.0,7.1,95,0.00,,,0.00,WUHU216PEETBRO,2013-07-03 12:46:00,
2013-07-03 08:51:00,79.1,77.4,30.16,East,81,2.8,7.1,95,0.00,,,0.00,WUHU216PEETBRO,2013-07-03 12:51:00,
2013-07-03 08:56:00,79.3,77.6,30.16,ESE,111,0.0,8.9,95,0.00,,,0.00,WUHU216PEETBRO,2013-07-03 12:56:00,
2013-07-03 09:01:00,79.8,78.1,30.16,SSE,155,0.0,8.9,95,0.00,,,0.00,WUHU216PEETBRO,2013-07-03 13:01:00,
2013-07-03 09:06:00,80.0,78.0,30.16,SE,145,5.4,7.3,94,0.00,,,0.00,WUHU216PEETBRO,2013-07-03 13:06:00,
2013-07-03 09:11:00,80.2,78.1,30.16,East,94,4.1,7.3,93,0.00,,,0.00,WUHU216PEETBRO,2013-07-03 13:11:00,
2013-07-03 09:16:00,80.4,78.1,30.16,ENE,73,4.4,9.5,93,0.00,,,0.00,WUHU216PEETBRO,2013-07-03 13:16:00,
2013-07-03 09:22:00,80.3,77.9,30.16,ESE,115,3.4,9.8,93,0.00,,,0.00,WUHU216PEETBRO,2013-07-03 13:22:00,
2013-07-03 09:25:00,80.7,78.1,30.16,ENE,70,4.3,9.8,92,0.00,,,0.00,WUHU216PEETBRO,2013-07-03 13:25:00,
2013-07-03 09:31:00,81.1,78.2,30.16,South,186,5.4,8.8,91,0.00,,,0.00,WUHU216PEETBRO,2013-07-03 13:31:00,
2013-07-03 09:36:00,81.5,78.5,30.16,ENE,66,3.3,8.3,91,0.00,,,0.00,WUHU216PEETBRO,2013-07-03 13:36:00,
2013-07-03 09:37:00,81.5,78.3,30.16,SE,131,5.2,8.3,90,0.00,,,0.00,WUHU216PEETBRO,2013-07-03 13:37:00,
2013-07-03 09:42:00,81.6,78.2,30.16,East,100,7.5,9.8,89,0.00,,,0.00,WUHU216PEETBRO,2013-07-03 13:42:00,
2013-07-03 09:47:00,82.2,78.4,30.16,SE,127,4.3,9.8,88,0.00,,,0.00,WUHU216PEETBRO,2013-07-03 13:47:00,
2013-07-03 09:53:00,82.7,77.7,30.16,SE,142,5.0,10.3,85,0.00,,,0.00,WUHU216PEETBRO,2013-07-03 13:53:00,
2013-07-03 09:58:00,83.0,77.5,30.16,SSE,167,9.4,11.1,84,0.00,,,0.00,WUHU216PEETBRO,2013-07-03 13:58:00,
2013-07-03 10:03:00,83.5,77.2,30.16,ESE,104,6.2,11.1,81,0.00,,,0.00,WUHU216PEETBRO,2013-07-03 14:03:00,
2013-07-03 10:07:00,83.6,76.2,30.16,SSE,151,6.7,13.9,78,0.00,,,0.00,WUHU216PEETBRO,2013-07-03 14:07:00,
2013-07-03 10:09:00,83.7,76.1,30.16,South,177,3.4,13.9,78,0.00,,,0.00,WUHU216PEETBRO,2013-07-03 14:09:00,
2013-07-03 10:14:00,83.7,76.3,30.16,NE,38,4.9,13.9,78,0.00,,,0.00,WUHU216PEETBRO,2013-07-03 14:14:00,
2013-07-03 10:18:00,83.5,75.6,30.16,ESE,118,7.4,14.7,77,0.00,,,0.00,WUHU216PEETBRO,2013-07-03 14:18:00,
2013-07-03 10:23:00,83.9,75.6,30.16,SSE,163,12.1,14.7,76,0.00,,,0.00,WUHU216PEETBRO,2013-07-03 14:23:00,
2013-07-03 10:28:00,84.3,76.3,30.16,ESE,122,5.0,14.5,77,0.00,,,0.00,WUHU216PEETBRO,2013-07-03 14:28:00,
2013-07-03 10:30:00,84.3,75.9,30.16,East,91,8.1,14.5,76,0.00,,,0.00,WUHU216PEETBRO,2013-07-03 14:30:00,
2013-07-03 10:35:00,84.5,76.4,30.16,SSE,153,9.6,11.5,76,0.00,,,0.00,WUHU216PEETBRO,2013-07-03 14:35:00,
2013-07-03 10:39:00,84.5,76.4,30.16,NE,36,7.1,13.9,76,0.00,,,0.00,WUHU216PEETBRO,2013-07-03 14:39:00,
2013-07-03 10:41:00,84.6,76.1,30.16,ESE,112,8.1,13.9,75,0.00,,,0.00,WUHU216PEETBRO,2013-07-03 14:41:00,
2013-07-03 10:46:00,85.0,76.0,30.16,East,93,8.6,13.9,74,0.00,,,0.00,WUHU216PEETBRO,2013-07-03 14:46:00,
2013-07-03 10:51:00,85.0,76.0,30.16,SSE,149,8.8,9.5,74,0.00,,,0.00,WUHU216PEETBRO,2013-07-03 14:51:00,
2013-07-03 10:52:00,85.1,76.0,30.15,SSE,165,6.8,9.5,74,0.00,,,0.00,WUHU216PEETBRO,2013-07-03 14:52:00,
2013-07-03 10:57:00,84.7,75.7,30.16,SE,139,6.7,11.8,74,0.00,,,0.00,WUHU216PEETBRO,2013-07-03 14:57:00,
2013-07-03 10:58:00,84.5,75.0,30.16,ESE,110,9.5,11.8,73,0.00,,,0.00,WUHU216PEETBRO,2013-07-03 14:58:00,
2013-07-03 11:03:00,84.5,74.9,30.16,SSE,165,5.0,12.9,72,0.00,,,0.00,WUHU216PEETBRO,2013-07-03 15:03:00,
2013-07-03 11:04:00,84.5,74.8,30.16,NE,56,9.9,12.9,72,0.00,,,0.00,WUHU216PEETBRO,2013-07-03 15:04:00,
2013-07-03 11:10:00,84.7,75.3,30.16,SE,146,7.3,12.0,73,0.00,,,0.00,WUHU216PEETBRO,2013-07-03 15:10:00,
2013-07-03 11:15:00,85.7,75.7,30.16,SSE,163,7.1,11.5,72,0.00,,,0.00,WUHU216PEETBRO,2013-07-03 15:15:00,
2013-07-03 11:20:00,85.9,75.4,30.16,SE,146,8.6,14.9,70,0.00,,,0.00,WUHU216PEETBRO,2013-07-03 15:20:00,
2013-07-03 11:25:00,86.5,75.7,30.15,SE,143,7.6,14.9,70,0.00,,,0.00,WUHU216PEETBRO,2013-07-03 15:25:00,
2013-07-03 11:28:00,86.4,75.1,30.16,SSE,152,7.3,14.2,69,0.00,,,0.00,WUHU216PEETBRO,2013-07-03 15:28:00,
2013-07-03 11:33:00,86.0,75.1,30.16,SSE,163,6.0,13.0,69,0.00,,,0.00,WUHU216PEETBRO,2013-07-03 15:33:00,
2013-07-03 11:38:00,85.6,75.1,30.16,ESE,105,7.5,13.9,70,0.00,,,0.00,WUHU216PEETBRO,2013-07-03 15:38:00,
2013-07-03 11:40:00,85.5,75.2,30.16,SE,138,2.9,13.9,71,0.00,,,0.00,WUHU216PEETBRO,2013-07-03 15:40:00,
2013-07-03 11:45:00,84.8,75.7,30.16,East,93,9.1,11.1,74,0.00,,,0.00,WUHU216PEETBRO,2013-07-03 15:45:00,
2013-07-03 11:50:00,83.5,76.0,30.16,NNE,23,4.2,11.1,78,0.00,,,0.00,WUHU216PEETBRO,2013-07-03 15:50:00,
2013-07-03 11:52:00,83.5,76.3,30.15,ENE,77,5.1,11.1,79,0.00,,,0.00,WUHU216PEETBRO,2013-07-03 15:52:00,
2013-07-03 11:57:00,83.5,76.8,30.15,ENE,57,9.1,11.2,80,0.00,,,0.00,WUHU216PEETBRO,2013-07-03 15:57:00,
2013-07-03 12:02:00,84.0,76.3,30.15,ESE,107,5.2,11.7,77,0.00,,,0.00,WUHU216PEETBRO,2013-07-03 16:02:00,
2013-07-03 12:08:00,84.1,76.1,30.15,SE,128,6.9,12.1,77,0.00,,,0.00,WUHU216PEETBRO,2013-07-03 16:08:00,
2013-07-03 12:13:00,84.5,76.8,30.14,NE,40,6.3,12.1,78,0.00,,,0.00,WUHU216PEETBRO,2013-07-03 16:13:00,
2013-07-03 12:18:00,84.7,77.0,30.14,North,359,5.0,8.5,77,0.00,,,0.00,WUHU216PEETBRO,2013-07-03 16:18:00,
2013-07-03 12:23:00,84.6,77.6,30.14,NE,36,7.8,13.4,79,0.00,,,0.00,WUHU216PEETBRO,2013-07-03 16:23:00,
2013-07-03 12:28:00,84.1,78.4,30.14,ENE,57,5.4,13.4,83,0.00,,,0.00,WUHU216PEETBRO,2013-07-03 16:28:00,
2013-07-03 12:33:00,83.5,78.7,30.14,SE,145,8.5,9.8,85,0.01,,,0.01,WUHU216PEETBRO,2013-07-03 16:33:00,
2013-07-03 12:38:00,83.0,78.7,30.15,SE,135,2.7,13.7,87,0.01,,,0.01,WUHU216PEETBRO,2013-07-03 16:38:00,
2013-07-03 12:44:00,82.4,78.5,30.15,East,98,6.4,13.7,88,0.01,,,0.01,WUHU216PEETBRO,2013-07-03 16:44:00,
2013-07-03 12:48:00,81.7,78.4,30.14,ENE,76,0.0,12.5,90,0.01,,,0.01,WUHU216PEETBRO,2013-07-03 16:48:00,
2013-07-03 12:54:00,81.3,78.5,30.14,NNE,33,6.0,12.5,91,0.01,,,0.01,WUHU216PEETBRO,2013-07-03 16:54:00,
2013-07-03 12:59:00,81.3,78.7,30.14,NE,38,6.1,12.5,92,0.01,,,0.01,WUHU216PEETBRO,2013-07-03 16:59:00,
2013-07-03 13:05:00,81.3,78.7,30.14,East,81,0.0,8.0,92,0.01,,,0.01,WUHU216PEETBRO,2013-07-03 17:05:00,
2013-07-03 13:10:00,81.4,78.8,30.14,ESE,115,7.0,8.0,92,0.01,,,0.01,WUHU216PEETBRO,2013-07-03 17:10:00,
2013-07-03 13:15:00,81.7,78.8,30.13,East,87,3.2,8.7,91,0.01,,,0.01,WUHU216PEETBRO,2013-07-03 17:15:00,
2013-07-03 13:20:00,82.3,78.9,30.14,SSE,153,7.2,8.7,90,0.01,,,0.01,WUHU216PEETBRO,2013-07-03 17:20:00,
2013-07-03 13:25:00,82.7,78.6,30.13,South,175,8.0,9.1,88,0.01,,,0.01,WUHU216PEETBRO,2013-07-03 17:25:00,
2013-07-03 13:30:00,81.5,76.4,30.15,South,169,12.9,17.6,84,0.00,,,0.01,WUHU216PEETBRO,2013-07-03 17:30:00,
2013-07-03 13:35:00,80.4,76.7,30.14,SW,221,5.3,17.6,88,0.00,,,0.01,WUHU216PEETBRO,2013-07-03 17:35:00,
2013-07-03 13:40:00,79.5,76.9,30.14,SW,223,0.0,10.5,92,0.00,,,0.01,WUHU216PEETBRO,2013-07-03 17:40:00,
2013-07-03 13:45:00,79.0,76.9,30.14,SW,224,0.0,7.1,93,0.00,,,0.01,WUHU216PEETBRO,2013-07-03 17:45:00,
2013-07-03 13:50:00,78.7,76.7,30.13,SW,218,0.0,7.1,94,0.00,,,0.01,WUHU216PEETBRO,2013-07-03 17:50:00,
2013-07-03 13:55:00,78.9,77.2,30.13,SE,138,0.0,4.1,95,0.00,,,0.01,WUHU216PEETBRO,2013-07-03 17:55:00,
2013-07-03 14:00:00,79.1,77.4,30.14,SE,138,0.0,0.0,95,0.00,,,0.01,WUHU216PEETBRO,2013-07-03 18:00:00,
2013-07-03 14:06:00,79.2,77.4,30.14,SE,138,0.0,0.0,94,0.00,,,0.01,WUHU216PEETBRO,2013-07-03 18:06:00,
2013-07-03 14:11:00,79.7,78.0,30.14,SE,138,0.0,0.0,95,0.00,,,0.01,WUHU216PEETBRO,2013-07-03 18:11:00,
2013-07-03 14:16:00,79.8,77.8,30.13,SE,142,0.0,3.3,94,0.00,,,0.01,WUHU216PEETBRO,2013-07-03 18:16:00,
2013-07-03 14:21:00,79.9,77.8,30.13,SE,142,0.0,3.3,93,0.00,,,0.01,WUHU216PEETBRO,2013-07-03 18:21:00,
2013-07-03 14:26:00,80.2,78.1,30.13,SE,142,0.0,0.0,93,0.00,,,0.01,WUHU216PEETBRO,2013-07-03 18:26:00,
2013-07-03 14:31:00,80.4,78.0,30.13,SE,127,0.0,3.3,93,0.00,,,0.01,WUHU216PEETBRO,2013-07-03 18:31:00,
2013-07-03 14:36:00,80.5,77.7,30.12,South,173,6.1,6.1,91,0.00,,,0.01,WUHU216PEETBRO,2013-07-03 18:36:00,
2013-07-03 14:41:00,81.0,77.7,30.12,SE,125,0.0,6.6,90,0.00,,,0.01,WUHU216PEETBRO,2013-07-03 18:41:00,
2013-07-03 14:46:00,81.3,77.1,30.12,ESE,108,6.5,7.3,87,0.00,,,0.01,WUHU216PEETBRO,2013-07-03 18:46:00,
2013-07-03 14:52:00,81.8,77.0,30.12,ENE,69,0.0,9.7,85,0.00,,,0.01,WUHU216PEETBRO,2013-07-03 18:52:00,
2013-07-03 14:57:00,82.0,77.0,30.11,ESE,119,5.9,9.7,85,0.00,,,0.01,WUHU216PEETBRO,2013-07-03 18:57:00,
2013-07-03 15:02:00,82.1,76.9,30.11,NNE,32,2.5,8.6,84,0.00,,,0.01,WUHU216PEETBRO,2013-07-03 19:02:00,
2013-07-03 15:07:00,82.3,77.1,30.11,East,94,5.1,8.6,84,0.00,,,0.01,WUHU216PEETBRO,2013-07-03 19:07:00,
2013-07-03 15:12:00,82.2,77.1,30.12,SE,138,3.4,7.9,84,0.00,,,0.01,WUHU216PEETBRO,2013-07-03 19:12:00,
2013-07-03 15:17:00,82.4,77.3,30.12,ENE,76,0.0,7.9,85,0.00,,,0.01,WUHU216PEETBRO,2013-07-03 19:17:00,
2013-07-03 15:22:00,82.2,77.2,30.12,SW,215,3.3,9.2,85,0.00,,,0.01,WUHU216PEETBRO,2013-07-03 19:22:00,
2013-07-03 15:27:00,82.4,77.6,30.12,ESE,114,5.9,9.2,85,0.00,,,0.01,WUHU216PEETBRO,2013-07-03 19:27:00,
2013-07-03 15:32:00,82.3,77.4,30.12,NE,46,3.5,9.1,85,0.00,,,0.01,WUHU216PEETBRO,2013-07-03 19:32:00,
2013-07-03 15:37:00,82.3,77.4,30.12,ESE,115,9.4,9.4,85,0.00,,,0.01,WUHU216PEETBRO,2013-07-03 19:37:00,
2013-07-03 15:42:00,82.3,77.4,30.12,SE,139,4.7,9.8,85,0.00,,,0.01,WUHU216PEETBRO,2013-07-03 19:42:00,
2013-07-03 15:48:00,82.4,77.6,30.12,ESE,110,8.8,9.8,85,0.00,,,0.01,WUHU216PEETBRO,2013-07-03 19:48:00,
2013-07-03 15:53:00,82.4,77.7,30.12,SSE,152,3.4,10.8,86,0.00,,,0.01,WUHU216PEETBRO,2013-07-03 19:53:00,
2013-07-03 15:58:00,82.0,76.3,30.12,South,170,10.7,12.1,83,0.00,,,0.01,WUHU216PEETBRO,2013-07-03 19:58:00,
2013-07-03 16:03:00,81.3,75.1,30.12,SE,142,7.8,12.1,81,0.00,,,0.01,WUHU216PEETBRO,2013-07-03 20:03:00,
2013-07-03 16:08:00,80.6,74.0,30.11,East,100,5.8,9.7,80,0.00,,,0.01,WUHU216PEETBRO,2013-07-03 20:08:00,
2013-07-03 16:13:00,80.5,74.3,30.11,East,87,0.0,8.6,81,0.00,,,0.01,WUHU216PEETBRO,2013-07-03 20:13:00,
2013-07-03 16:18:00,80.6,74.8,30.11,South,176,5.4,7.7,82,0.00,,,0.01,WUHU216PEETBRO,2013-07-03 20:18:00,
2013-07-03 16:23:00,80.7,75.1,30.12,ESE,118,5.3,7.7,83,0.00,,,0.01,WUHU216PEETBRO,2013-07-03 20:23:00,
2013-07-03 16:29:00,80.9,75.4,30.11,East,90,3.5,6.5,83,0.00,,,0.01,WUHU216PEETBRO,2013-07-03 20:29:00,
2013-07-03 16:34:00,81.2,76.0,30.11,East,80,0.0,6.9,84,0.00,,,0.01,WUHU216PEETBRO,2013-07-03 20:34:00,
2013-07-03 16:39:00,81.4,76.3,30.11,East,83,2.8,8.6,84,0.00,,,0.01,WUHU216PEETBRO,2013-07-03 20:39:00,
2013-07-03 16:44:00,81.7,76.6,30.11,NE,45,0.0,8.6,84,0.00,,,0.01,WUHU216PEETBRO,2013-07-03 20:44:00,
2013-07-03 16:49:00,82.0,77.1,30.11,NNE,19,6.2,9.8,85,0.00,,,0.01,WUHU216PEETBRO,2013-07-03 20:49:00,
2013-07-03 16:54:00,82.2,77.1,30.11,ENE,66,10.1,10.1,84,0.00,,,0.01,WUHU216PEETBRO,2013-07-03 20:54:00,
2013-07-03 16:59:00,82.5,77.2,30.11,SSE,153,8.0,10.3,84,0.00,,,0.01,WUHU216PEETBRO,2013-07-03 20:59:00,
2013-07-03 17:04:00,82.5,76.9,30.11,SE,135,0.0,10.3,83,0.00,,,0.01,WUHU216PEETBRO,2013-07-03 21:04:00,
2013-07-03 17:09:00,82.7,76.6,30.11,ENE,76,4.3,8.8,82,0.00,,,0.01,WUHU216PEETBRO,2013-07-03 21:09:00,
2013-07-03 17:14:00,82.8,76.1,30.11,NNE,29,2.8,8.9,80,0.00,,,0.01,WUHU216PEETBRO,2013-07-03 21:14:00,
2013-07-03 17:19:00,83.0,76.3,30.11,ESE,118,8.3,11.6,80,0.00,,,0.01,WUHU216PEETBRO,2013-07-03 21:19:00,
2013-07-03 17:25:00,83.1,76.1,30.11,ENE,64,4.8,11.6,79,0.00,,,0.01,WUHU216PEETBRO,2013-07-03 21:25:00,
2013-07-03 17:30:00,83.2,75.6,30.11,SE,142,11.1,11.1,78,0.00,,,0.01,WUHU216PEETBRO,2013-07-03 21:30:00,
2013-07-03 17:35:00,83.3,75.5,30.12,ESE,105,6.4,11.1,77,0.00,,,0.01,WUHU216PEETBRO,2013-07-03 21:35:00,
2013-07-03 17:40:00,83.3,75.4,30.12,ESE,112,5.1,11.2,77,0.00,,,0.01,WUHU216PEETBRO,2013-07-03 21:40:00,
2013-07-03 17:45:00,83.2,75.3,30.11,East,98,3.2,11.7,77,0.00,,,0.01,WUHU216PEETBRO,2013-07-03 21:45:00,
2013-07-03 17:50:00,83.4,75.7,30.11,SE,145,7.1,14.5,77,0.00,,,0.01,WUHU216PEETBRO,2013-07-03 21:50:00,
2013-07-03 17:56:00,83.3,75.8,30.11,SSE,148,4.1,14.5,78,0.00,,,0.01,WUHU216PEETBRO,2013-07-03 21:56:00,
2013-07-03 18:01:00,83.2,75.8,30.11,ESE,118,5.7,10.4,78,0.00,,,0.01,WUHU216PEETBRO,2013-07-03 22:01:00,
2013-07-03 18:06:00,83.2,76.1,30.11,ESE,112,3.1,11.5,79,0.00,,,0.01,WUHU216PEETBRO,2013-07-03 22:06:00,
2013-07-03 18:11:00,83.1,76.2,30.12,South,169,5.3,11.5,79,0.00,,,0.01,WUHU216PEETBRO,2013-07-03 22:11:00,
2013-07-03 18:16:00,82.9,76.0,30.12,East,97,7.8,11.1,80,0.00,,,0.01,WUHU216PEETBRO,2013-07-03 22:16:00,
2013-07-03 18:22:00,82.9,76.2,30.12,South,177,4.7,11.8,80,0.00,,,0.01,WUHU216PEETBRO,2013-07-03 22:22:00,
2013-07-03 18:27:00,83.0,76.2,30.12,SE,128,5.2,11.8,80,0.00,,,0.01,WUHU216PEETBRO,2013-07-03 22:27:00,
2013-07-03 18:32:00,83.0,76.3,30.12,ESE,105,5.0,10.9,80,0.00,,,0.01,WUHU216PEETBRO,2013-07-03 22:32:00,
2013-07-03 18:37:00,82.9,76.2,30.12,SE,128,4.8,8.8,80,0.00,,,0.01,WUHU216PEETBRO,2013-07-03 22:37:00,
2013-07-03 18:42:00,82.8,76.2,30.12,SSE,167,7.1,9.5,80,0.00,,,0.01,WUHU216PEETBRO,2013-07-03 22:42:00,
2013-07-03 18:47:00,82.7,76.2,30.12,ESE,107,8.9,10.7,80,0.00,,,0.01,WUHU216PEETBRO,2013-07-03 22:47:00,
2013-07-03 18:52:00,82.7,76.2,30.12,SSE,149,5.2,10.7,80,0.00,,,0.01,WUHU216PEETBRO,2013-07-03 22:52:00,
2013-07-03 18:58:00,82.7,76.1,30.12,East,86,4.2,9.9,80,0.00,,,0.01,WUHU216PEETBRO,2013-07-03 22:58:00,
2013-07-03 19:03:00,82.3,75.5,30.12,ESE,108,2.8,9.9,80,0.00,,,0.01,WUHU216PEETBRO,2013-07-03 23:03:00,
2013-07-03 19:08:00,81.9,75.7,30.12,SE,128,0.0,7.0,81,0.00,,,0.01,WUHU216PEETBRO,2013-07-03 23:08:00,
2013-07-03 19:13:00,81.6,75.7,30.12,East,83,0.0,5.7,82,0.00,,,0.01,WUHU216PEETBRO,2013-07-03 23:13:00,
2013-07-03 19:18:00,81.9,76.3,30.12,SE,124,3.4,5.7,83,0.00,,,0.01,WUHU216PEETBRO,2013-07-03 23:18:00,
2013-07-03 19:23:00,81.9,76.0,30.12,ESE,114,3.5,6.4,82,0.00,,,0.01,WUHU216PEETBRO,2013-07-03 23:23:00,
2013-07-03 19:28:00,82.1,76.2,30.12,East,95,0.0,6.4,82,0.00,,,0.01,WUHU216PEETBRO,2013-07-03 23:28:00,
2013-07-03 19:34:00,82.2,76.3,30.13,ESE,117,0.0,8.7,82,0.00,,,0.01,WUHU216PEETBRO,2013-07-03 23:34:00,
2013-07-03 19:39:00,82.2,76.4,30.13,ENE,66,6.8,8.7,82,0.00,,,0.01,WUHU216PEETBRO,2013-07-03 23:39:00,
2013-07-03 19:44:00,82.2,76.4,30.13,ESE,115,4.4,7.6,83,0.00,,,0.01,WUHU216PEETBRO,2013-07-03 23:44:00,
2013-07-03 19:49:00,82.0,76.3,30.13,East,79,0.0,7.8,83,0.00,,,0.01,WUHU216PEETBRO,2013-07-03 23:49:00,
2013-07-03 19:54:00,81.8,76.2,30.14,East,88,0.0,7.8,83,0.00,,,0.01,WUHU216PEETBRO,2013-07-03 23:54:00,
2013-07-03 19:59:00,81.8,76.1,30.14,South,182,3.5,8.0,83,0.00,,,0.01,WUHU216PEETBRO,2013-07-03 23:59:00,
2013-07-03 20:04:00,81.7,76.1,30.14,SE,135,4.3,8.0,83,0.00,,,0.01,WUHU216PEETBRO,2013-07-04 00:04:00,
2013-07-03 20:09:00,81.5,76.0,30.14,East,101,5.6,9.5,83,0.00,,,0.01,WUHU216PEETBRO,2013-07-04 00:09:00,
2013-07-03 20:14:00,81.5,76.1,30.14,SE,134,5.0,9.5,83,0.00,,,0.01,WUHU216PEETBRO,2013-07-04 00:14:00,
2013-07-03 20:20:00,81.4,76.2,30.14,ESE,111,5.7,9.3,84,0.00,,,0.01,WUHU216PEETBRO,2013-07-04 00:20:00,
2013-07-03 20:25:00,81.4,76.3,30.14,South,172,4.2,9.3,84,0.00,,,0.01,WUHU216PEETBRO,2013-07-04 00:25:00,
2013-07-03 20:30:00,81.3,76.4,30.14,SSE,165,8.9,8.9,85,0.00,,,0.01,WUHU216PEETBRO,2013-07-04 00:30:00,
2013-07-03 20:35:00,81.2,76.4,30.14,SE,142,3.2,8.9,85,0.00,,,0.01,WUHU216PEETBRO,2013-07-04 00:35:00,
2013-07-03 20:40:00,81.0,76.3,30.14,NE,55,0.0,9.6,86,0.00,,,0.01,WUHU216PEETBRO,2013-07-04 00:40:00,
2013-07-03 20:45:00,81.0,76.4,30.14,ESE,115,3.5,9.6,86,0.00,,,0.01,WUHU216PEETBRO,2013-07-04 00:45:00,
2013-07-03 20:51:00,80.8,76.3,30.15,SE,131,5.5,8.9,86,0.00,,,0.01,WUHU216PEETBRO,2013-07-04 00:51:00,
2013-07-03 20:56:00,80.7,76.3,30.15,SE,134,5.2,9.9,86,0.00,,,0.01,WUHU216PEETBRO,2013-07-04 00:56:00,
2013-07-03 21:01:00,80.4,74.6,30.16,South,176,9.9,15.0,82,0.00,,,0.01,WUHU216PEETBRO,2013-07-04 01:01:00,
2013-07-03 21:06:00,79.7,73.5,30.16,SE,146,5.2,15.0,81,0.03,,,0.04,WUHU216PEETBRO,2013-07-04 01:06:00,
2013-07-03 21:11:00,78.9,73.3,30.16,SE,138,3.5,11.6,83,0.05,,,0.06,WUHU216PEETBRO,2013-07-04 01:11:00,
2013-07-03 21:16:00,77.4,73.1,30.16,SSE,158,5.2,10.7,87,0.05,,,0.06,WUHU216PEETBRO,2013-07-04 01:16:00,
2013-07-03 21:21:00,76.7,73.4,30.16,SE,146,4.7,10.7,90,0.05,,,0.06,WUHU216PEETBRO,2013-07-04 01:21:00,
2013-07-03 21:26:00,76.2,73.1,30.16,East,95,0.0,7.8,90,0.05,,,0.06,WUHU216PEETBRO,2013-07-04 01:26:00,
2013-07-03 21:31:00,76.0,73.2,30.16,SSE,162,0.0,6.3,91,0.05,,,0.06,WUHU216PEETBRO,2013-07-04 01:31:00,
2013-07-03 21:36:00,76.0,73.5,30.16,ESE,105,3.5,5.4,92,0.05,,,0.06,WUHU216PEETBRO,2013-07-04 01:36:00,
2013-07-03 21:41:00,75.8,73.4,30.16,East,91,0.0,5.8,93,0.05,,,0.06,WUHU216PEETBRO,2013-07-04 01:41:00,
2013-07-03 21:46:00,75.8,73.5,30.17,SSE,151,0.0,5.8,93,0.05,,,0.06,WUHU216PEETBRO,2013-07-04 01:46:00,
2013-07-03 21:51:00,75.6,73.4,30.17,SE,125,0.0,5.5,93,0.05,,,0.06,WUHU216PEETBRO,2013-07-04 01:51:00,
2013-07-03 21:56:00,75.5,73.4,30.17,SE,136,0.0,5.5,93,0.05,,,0.06,WUHU216PEETBRO,2013-07-04 01:56:00,
2013-07-03 22:02:00,75.4,73.6,30.17,SSE,149,0.0,3.4,94,0.05,,,0.06,WUHU216PEETBRO,2013-07-04 02:02:00,
2013-07-03 22:07:00,75.4,73.6,30.16,SSE,149,0.0,3.1,94,0.02,,,0.06,WUHU216PEETBRO,2013-07-04 02:07:00,
2013-07-03 22:12:00,75.4,73.6,30.17,SSE,149,0.0,3.0,94,0.00,,,0.06,WUHU216PEETBRO,2013-07-04 02:12:00,
2013-07-03 22:17:00,75.3,73.6,30.17,SSE,149,0.0,3.0,94,0.00,,,0.06,WUHU216PEETBRO,2013-07-04 02:17:00,
2013-07-03 22:22:00,75.3,73.6,30.17,SSE,166,0.0,3.4,95,0.00,,,0.06,WUHU216PEETBRO,2013-07-04 02:22:00,
2013-07-03 22:27:00,75.3,73.7,30.18,SSE,166,0.0,3.4,95,0.00,,,0.06,WUHU216PEETBRO,2013-07-04 02:27:00,
2013-07-03 22:33:00,75.3,73.7,30.18,SSE,148,3.2,3.2,95,0.00,,,0.06,WUHU216PEETBRO,2013-07-04 02:33:00,
2013-07-03 22:38:00,75.2,73.6,30.18,SE,132,0.0,4.8,95,0.00,,,0.06,WUHU216PEETBRO,2013-07-04 02:38:00,
2013-07-03 22:43:00,75.3,73.7,30.18,SE,132,0.0,4.8,95,0.00,,,0.06,WUHU216PEETBRO,2013-07-04 02:43:00,
2013-07-03 22:48:00,75.2,73.6,30.19,SE,132,0.0,0.0,95,0.00,,,0.06,WUHU216PEETBRO,2013-07-04 02:48:00,
2013-07-03 22:54:00,75.3,73.7,30.19,SE,132,0.0,0.0,95,0.00,,,0.06,WUHU216PEETBRO,2013-07-04 02:54:00,
2013-07-03 22:59:00,75.3,73.7,30.19,SE,132,0.0,0.0,95,0.00,,,0.06,WUHU216PEETBRO,2013-07-04 02:59:00,
2013-07-03 23:04:00,75.3,73.7,30.19,SE,132,0.0,0.0,95,0.00,,,0.06,WUHU216PEETBRO,2013-07-04 03:04:00,
2013-07-03 23:09:00,75.3,73.7,30.18,SE,132,0.0,0.0,95,0.00,,,0.06,WUHU216PEETBRO,2013-07-04 03:09:00,
2013-07-03 23:14:00,75.2,73.6,30.18,SE,132,0.0,0.0,95,0.00,,,0.06,WUHU216PEETBRO,2013-07-04 03:14:00,
2013-07-03 23:19:00,75.1,73.5,30.19,SSE,151,0.0,4.3,95,0.00,,,0.06,WUHU216PEETBRO,2013-07-04 03:19:00,
2013-07-03 23:24:00,75.2,73.6,30.19,SSE,151,0.0,4.3,95,0.00,,,0.06,WUHU216PEETBRO,2013-07-04 03:24:00,
2013-07-03 23:29:00,75.2,73.6,30.19,SE,145,0.0,3.5,95,0.00,,,0.06,WUHU216PEETBRO,2013-07-04 03:29:00,
2013-07-03 23:35:00,75.2,73.6,30.19,ESE,112,0.0,3.5,95,0.00,,,0.06,WUHU216PEETBRO,2013-07-04 03:35:00,
2013-07-03 23:40:00,75.1,73.5,30.19,East,81,0.0,3.5,95,0.00,,,0.06,WUHU216PEETBRO,2013-07-04 03:40:00,
2013-07-03 23:45:00,75.2,73.5,30.19,ENE,64,0.0,0.0,95,0.00,,,0.06,WUHU216PEETBRO,2013-07-04 03:45:00,
2013-07-03 23:50:00,75.2,73.5,30.19,ENE,64,0.0,0.0,95,0.00,,,0.06,WUHU216PEETBRO,2013-07-04 03:50:00,
2013-07-03 23:55:00,75.2,73.5,30.19,East,87,0.0,0.0,95,0.00,,,0.06,WUHU216PEETBRO,2013-07-04 03:55:00,